Doha, Qatar

11:19 PM +03 on November 20, 2017 (GMT +0300)
Doha International

Weather History for OTBD - November, 2012

Change the Weather History Date:

Sunday, November 25, 2012

  Actual Average Record
Temperature  
Mean Temperature 80 °F -  
Max Temperature 84 °F 77 °F 85 °F (2014)
Min Temperature 75 °F 60 °F 60 °F (2002)
Cooling Degree Days 14    
Growing Degree Days 30 (Base 50)    
Moisture  
Dew Point 68 °F    
Average Humidity 69    
Maximum Humidity 83    
Minimum Humidity 51    
Precipitation  
Precipitation 0.00 in 0.01 in - ()
Sea Level Pressure  
Sea Level Pressure 29.99 in    
Wind  
Wind Speed 4 mph ()    
Max Wind Speed 10 mph    
Max Gust Speed -    
Visibility 5.1 miles    
Events      
Averages and records for this station are not official NWS values.
T = Trace of Precipitation, MM = Missing Value Source: Averaged Metar Reports

Daily Weather History Graph

Daily Weather History Graph

Search for Another Location

Airport or City:

Trip Planner

Search our weather history database for the weather conditions in past years. The results will help you decide how hot, cold, wet, or windy it might be!

Date:

Astronomy

Nov. 25, 2012 Rise Set
Actual Time 5:58 AM +03 4:43 PM +03
Civil Twilight 5:33 AM +03 5:07 PM +03
Nautical Twilight 5:05 AM +03 5:36 PM +03
Astronomical Twilight 4:37 AM +03 6:03 PM +03
Moon 2:36 PM +03 (11/25) 3:03 AM +03 (11/25)
Length of Visible Light 11h 34m
Length of Day
10h 45m
Waxing Gibbous, 91% of the Moon is Illuminated
Nov 25
Waxing Gibbous
Nov 28
Full
Dec 6
Last Quarter
Dec 13
New
Dec 20
First Quarter

Hourly Weather History & Observations

Time (+03) Temp. Heat Index Dew Point Humidity Pressure Visibility Wind Dir Wind Speed Gust Speed Precip Events Conditions
12:00 AM 77.0 °F - 68.0 °F 74% 29.98 in - Variable 2.3 mph - N/A   Clear
12:30 AM 77.0 °F - 68.0 °F 74% 29.98 in - ENE 3.5 mph - N/A   Clear
1:00 AM 75.2 °F - 68.0 °F 78% 29.98 in - Variable 2.3 mph - N/A   Clear
1:30 AM 75.2 °F - 68.0 °F 78% 29.98 in - ENE 3.5 mph - N/A   Clear
2:00 AM 75.2 °F - 68.0 °F 78% 29.95 in - ENE 3.5 mph - N/A   Clear
2:30 AM 77.0 °F - 68.0 °F 74% 29.95 in - East 3.5 mph - N/A   Clear
3:00 AM 77.0 °F - 68.0 °F 74% 29.95 in - Variable 2.3 mph - N/A   Clear
3:30 AM 75.2 °F - 66.2 °F 73% 29.98 in - Variable 2.3 mph - N/A   Clear
4:00 AM 75.2 °F - 64.4 °F 69% 29.98 in - Variable 2.3 mph - N/A   Clear
4:30 AM 75.2 °F - 64.4 °F 69% 29.98 in - ENE 3.5 mph - N/A   Clear
5:00 AM 75.2 °F - 64.4 °F 69% 29.98 in - Variable 1.2 mph - N/A   Clear
5:30 AM 75.2 °F - 66.2 °F 73% 30.01 in - Calm Calm - N/A   Clear
6:00 AM 75.2 °F - 68.0 °F 78% 30.01 in 5.6 mi Calm Calm - N/A   Unknown
6:30 AM 75.2 °F - 69.8 °F 83% 30.01 in - Calm Calm - N/A   Clear
7:00 AM 75.2 °F - 69.8 °F 83% 30.04 in - Calm Calm - N/A   Clear
7:30 AM 77.0 °F - 69.8 °F 78% 30.04 in - Variable 2.3 mph - N/A   Clear
8:00 AM 78.8 °F - 69.8 °F 74% 30.04 in - Variable 2.3 mph - N/A   Clear
8:30 AM 82.4 °F 85.4 °F 68.0 °F 62% 30.04 in - East 6.9 mph - N/A   Clear
9:00 AM 80.6 °F 83.2 °F 68.0 °F 65% 30.04 in - East 6.9 mph - N/A   Clear
9:30 AM 82.4 °F 84.6 °F 66.2 °F 58% 30.04 in - East 6.9 mph - N/A   Clear
10:00 AM 82.4 °F 84.6 °F 66.2 °F 58% 30.04 in - East 6.9 mph - N/A   Clear
10:30 AM 84.2 °F 85.6 °F 64.4 °F 51% 30.04 in - East 8.1 mph - N/A   Clear
11:00 AM 84.2 °F 85.6 °F 64.4 °F 51% 30.01 in - East 8.1 mph - N/A   Clear
11:30 AM 84.2 °F 85.6 °F 64.4 °F 51% 30.01 in - East 10.4 mph - N/A   Clear
12:00 PM 84.2 °F 86.6 °F 66.2 °F 55% 29.98 in - ESE 10.4 mph - N/A   Clear
12:30 PM 82.4 °F 85.4 °F 68.0 °F 62% 29.98 in - ESE 9.2 mph - N/A   Clear
1:00 PM 82.4 °F 84.6 °F 66.2 °F 58% 29.98 in - ESE 10.4 mph - N/A   Clear
2:00 PM 82.4 °F 84.6 °F 66.2 °F 58% 29.98 in 6.2 mi East 9.2 mph - N/A   Partly Cloudy
2:30 PM 82.4 °F 85.4 °F 68.0 °F 62% 29.95 in 6.2 mi ESE 9.2 mph - N/A   Partly Cloudy
3:00 PM 81 °F - 67 °F 54% 29.98 in 6 mi East 8.1 mph - -   Partly Cloudy
3:00 PM 80.6 °F 83.2 °F 68.0 °F 65% 29.98 in - East 8.1 mph - N/A   Clear
3:30 PM 80.6 °F 83.2 °F 68.0 °F 65% 29.95 in 5.6 mi ESE 8.1 mph - N/A   Unknown
4:00 PM 80.6 °F 82.7 °F 66.2 °F 61% 29.95 in 5.6 mi ESE 9.2 mph - N/A   Unknown
4:30 PM 80.6 °F 82.7 °F 66.2 °F 61% 29.95 in 5.6 mi East 6.9 mph - N/A   Unknown
5:00 PM 78.8 °F - 66.2 °F 65% 29.98 in 5.6 mi East 5.8 mph - N/A   Unknown
5:30 PM 78.8 °F - 68.0 °F 69% 29.98 in - East 4.6 mph - N/A   Clear
6:00 PM 78.8 °F - 68.0 °F 69% 29.98 in - East 4.6 mph - N/A   Clear
6:30 PM 78.8 °F - 68.0 °F 69% 29.98 in - East 5.8 mph - N/A   Clear
7:00 PM 77.0 °F - 69.8 °F 78% 29.98 in - East 4.6 mph - N/A   Clear
7:30 PM 77.0 °F - 69.8 °F 78% 29.98 in 5.6 mi East 6.9 mph - N/A   Unknown
8:00 PM 77.0 °F - 69.8 °F 78% 29.98 in 5.0 mi East 4.6 mph - N/A   Unknown
8:30 PM 77.0 °F - 69.8 °F 78% 29.98 in 5.0 mi ENE 5.8 mph - N/A   Unknown
9:00 PM 77 °F - 69 °F 71% 30.00 in 5 mi ENE 4.6 mph - -   Haze
9:00 PM 77.0 °F - 69.8 °F 78% 29.98 in 5.0 mi ENE 4.6 mph - N/A   Unknown
9:30 PM 77.0 °F - 69.8 °F 78% 29.98 in 4.3 mi East 4.6 mph - N/A   Unknown
10:00 PM 77.0 °F - 69.8 °F 78% 29.98 in 3.7 mi East 4.6 mph - N/A   Unknown
10:30 PM 77.0 °F - 69.8 °F 78% 29.98 in 3.7 mi East 5.8 mph - N/A   Unknown
11:00 PM 77.0 °F - 69.8 °F 78% 29.98 in 3.7 mi East 5.8 mph - N/A   Unknown
11:30 PM 77.0 °F - 69.8 °F 78% 29.98 in 3.7 mi East 4.6 mph - N/A   Unknown